Content
SEND FEEDBACK

Daily
Averages
Monthly
Summary
Brazil

MACAE, RIO DE JANEIRO


Home > South America > Brazil > Rio De Janeiro
Elevation: 7 feet     Latitude: 22 21S     Longitude: 041 46W

WEATHER
 
SELECT A DAY
Number of Records: 103,546;   Date Range: 6/30/96 - 12/16/14
 
SHARE

PRINT THIS DATA

[ ← Previous Day ]
WEATHER ALMANAC - JUNE 12, 2013
[ Next Day → ]
[ °C ]   °F
Weather ElementAverageHighLow
Temperature68.6 °F80.6 °F (12:00 pm)55.4 °F (4:00 am)
Dewpoint64.2 °F71.6 °F (3:00 pm)53.6 °F (5:00 am)
Humidity87.2 %100 % (2:00 am)58 % (12:00 pm)
Barometer30.10 in30.15 in (8:00 am)30.06 in (2:00 pm)
Wind Speed3.8 mph9.2 mph (2:00 pm)
Weather ElementAverage
Wind DirectionSSE (173 °)

Weather ElementTotal
Precipitation---
Cooling Degree Days3 (Base 65)
Growing Degree Days18 (Base 50)
Averaged from 23 records on June 12, 2013
WEATHER CONDITIONS BREAKOUT
WIND DIRECTION BREAKOUT
WEATHER BY HOUR - JUNE 12, 2013
[ °C ]   °F
Local TimeTemperatureDewpointHumidityBarometerVisibilityWind DirectionWind SpeedGust SpeedPrecipitationEventsConditions
1:00 AM59.0 °F57.2 °F94 %30.12 inNNW (340°)4.6 mphClear
2:00 AM57.2 °F57.2 °F100 %30.09 inNNW (340°)3.5 mphClear
3:00 AM59.0 °F57.2 °F94 %30.09 inNNW (340°)5.8 mphClear
4:00 AM55.4 °F55.4 °F100 %30.09 inCalmClear
5:00 AM55.4 °F53.6 °F94 %30.09 inNW (310°)2.3 mphClear
6:00 AM55.4 °F53.6 °F94 %30.09 inNNW (340°)1.2 mphClear
7:00 AM57.2 °F55.4 °F94 %30.12 inNW (320°)2.3 mphClear
8:00 AM62.6 °F62.6 °F100 %30.15 inNNW (330°)2.3 mphClear
9:00 AM69.8 °F68.0 °F94 %30.15 inNNW (340°)2.3 mphClear
10:00 AM75.2 °F69.8 °F83 %30.15 inSSE (150°)2.3 mphClear
11:00 AM78.8 °F64.4 °F61 %30.12 inESE (110°)5.8 mphClear
12:00 PM80.6 °F64.4 °F58 %30.09 inSE (140°)5.8 mphClear
1:00 PM80.6 °F66.2 °F61 %30.09 inSE (130°)5.8 mphClear
2:00 PM80.6 °F68.0 °F65 %30.06 inESE (120°)9.2 mphClear
3:00 PM78.8 °F71.6 °F78 %30.06 inSE (140°)9.2 mphClear
4:00 PM77.0 °F71.6 °F83 %30.06 inEast (100°)9.2 mphClear
5:00 PM75.2 °F71.6 °F89 %30.06 inESE (120°)2.3 mphClear
6:00 PM73.4 °F69.8 °F88 %30.09 inEast (100°)2.3 mphClear
7:00 PM69.8 °F68.0 °F94 %30.09 inENE (60°)1.2 mphClear
8:00 PM71.6 °F69.8 °F94 %30.09 inNE (50°)2.3 mphClear
9:00 PM69.8 °F68.0 °F94 %30.09 inNNE (30°)1.2 mphClear
10:00 PM69.8 °F68.0 °F94 %30.09 inNE (40°)4.6 mphClear
11:00 PM66.2 °F66.2 °F100 %30.09 inNNE (30°)1.2 mphClear
Hourly data recorded from SBME, located miles away from Macae, Rio De Janeiro







STORIES FROM OUR PARTNERS